N420HF KSNA-KLAS

Flight info

Callsign N420HF
Flight time N/A
Altitude 29000
Route FINZZ3 MISEN RNDRZ4
Aircraft C700/M-SBDGHM1RWXY/LB2

Departure

Time 2026-04-30 00:17
Airport John Wayne Orange County International Airport (KSNA)

Arrival

Time N/A
Airport Harry Reid International Airport (KLAS)
Time Latitude Longitude Altitude Speed Heading
2026-04-29 23:51 33.67322 -117.86559 55 ft 0 kts 168°
2026-04-30 00:12 33.67311 -117.86585 54 ft 8 kts 272°
2026-04-30 00:13 33.67338 -117.86659 57 ft 11 kts 300°
2026-04-30 00:13 33.67384 -117.86668 55 ft 10 kts 31°
2026-04-30 00:13 33.67454 -117.86621 57 ft 7 kts 26°
2026-04-30 00:13 33.67514 -117.86585 50 ft 12 kts 27°
2026-04-30 00:14 33.67598 -117.86531 55 ft 13 kts 28°
2026-04-30 00:14 33.67667 -117.86488 53 ft 9 kts 29°
2026-04-30 00:14 33.67741 -117.86440 50 ft 15 kts 28°
2026-04-30 00:14 33.67828 -117.86385 49 ft 16 kts 27°
2026-04-30 00:15 33.67913 -117.86331 48 ft 15 kts 27°
2026-04-30 00:15 33.67998 -117.86278 46 ft 16 kts 27°
2026-04-30 00:15 33.68041 -117.86266 45 ft 6 kts 349°
2026-04-30 00:15 33.68066 -117.86306 45 ft 7 kts 291°
2026-04-30 00:16 33.68100 -117.86388 44 ft 15 kts 297°
2026-04-30 00:16 33.68143 -117.86511 42 ft 14 kts 257°
2026-04-30 00:16 33.68072 -117.86567 44 ft 13 kts 207°
2026-04-30 00:16 33.67973 -117.86631 43 ft 27 kts 208°
2026-04-30 00:17 33.67550 -117.86899 58 ft 115 kts 206°
2026-04-30 00:17 33.66612 -117.87478 304 ft 177 kts 210°
2026-04-30 00:17 33.65438 -117.88188 876 ft 202 kts 208°
2026-04-30 00:17 33.64066 -117.88954 1151 ft 226 kts 206°
2026-04-30 00:18 33.62599 -117.89573 1913 ft 225 kts 194°
2026-04-30 00:18 33.61089 -117.89738 2448 ft 203 kts 181°
2026-04-30 00:18 33.59732 -117.89720 2868 ft 193 kts 178°